Cloud_Cover
5 6 8 41 15 20 50 8 78 74 44 3 4 70 80 60 59 5 5 3 0 0 0 1 22 35 52 22 5 5 5 5 5 5 33 30 0 4 100 100 100 100 97
6 16 100 100 8 53 6 83 49 5 5 40 68 10 6 1 0 0 0 0 0 0 0 0 0 0 5 5 5 5 5 5 59 80 11 88 67 5 3 100 100 79 100
5 6 32 44 12 85 56 5 5 5 5 0 0 0 0 0 0 0 0 0 0 0 5 5 5 5 5 5 5 33 82 78 80 99 99 100 36 23 6 5 80 100 97
5 12 90 42 60 7 5 3 0 0 0 0 0 0 0 0 0 0 0 1 5 5 5 5 5 5 5 5 6 16 40 80 94 100 98 99 100 30 6 64 20 24 100
57 86 63 53 5 4 0 0 0 0 0 0 0 0 0 0 0 0 5 5 5 5 5 5 5 5 26 80 96 94 99 100 100 100 100 100 100 100 72 5 9 63 5
100 95 7 5 3 2 0 0 0 0 0 0 0 0 0 0 0 5 32 5 5 5 5 5 5 5 5 41 93 100 100 100 100 100 100 100 100 100 100 84 100 100 94
63 5 5 5 5 0 2 0 0 0 0 0 0 0 0 0 2 12 44 65 70 33 18 28 5 5 5 9 80 100 99 63 100 100 100 99 99 100 89 56 11 5 6
26 5 5 4 3 2 0 0 0 0 0 0 0 3 0 0 5 27 83 80 86 93 93 77 5 5 16 100 100 91 15 60 75 100 94 64 93 85 80 96 97 74 34
12 2 5 3 5 1 2 0 3 4 0 4 5 5 5 4 3 11 99 100 100 100 99 66 5 16 98 100 100 100 100 65 5 9 63 91 100 100 100 100 97 84 81
1 0 5 5 5 5 0 5 5 5 5 5 5 5 5 5 0 52 100 99 100 100 98 97 80 100 100 100 100 99 100 47 5 5 8 6 5 5 24 54 46 100 61
5 5 5 5 5 5 13 99 5 5 5 5 5 5 5 5 5 62 100 100 100 100 100 100 95 97 100 100 100 100 99 100 99 100 100 100 100 91 90 40 63 74 14
5 5 5 5 4 5 84 90 5 5 5 5 5 11 5 5 5 74 100 100 100 100 100 100 62 99 100 100 100 100 100 100 99 100 100 83 78 75 54 53 11 12 5
5 5 5 5 5 5 6 6 5 53 12 5 5 5 5 5 5 24 29 97 100 100 100 100 100 100 100 62 28 100 99 15 61 99 100 98 99 100 100 100 100 99 82
5 5 5 5 5 23 92 42 5 5 25 5 5 5 5 12 50 5 10 96 88 98 100 77 20 11 5 69 6 21 45 53 95 100 100 100 100 100 100 98 100 100 100
5 5 5 5 5 42 63 23 7 84 36 39 34 19 83 96 26 99 100 100 100 99 94 4 5 5 14 6 24 38 51 79 100 100 100 100 100 100 100 100 100 100 100
43 45 11 5 5 10 78 68 95 74 99 100 100 100 100 100 100 100 100 100 100 100 71 5 6 67 100 96 100 99 98 100 100 100 100 100 100 100 100 100 100 100 100
78 33 5 5 70 100 75 70 20 100 57 64 100 100 100 100 100 100 100 100 85 83 6 37 93 92 100 100 100 100 100 100 100 100 100 100 100 100 100 100 100 100 100
85 10 5 5 5 10 5 5 10 70 12 97 44 81 100 100 100 100 100 97 49 11 9 43 83 100 100 100 100 100 100 100 100 100 100 100 100 100 100 100 100 100 100
5 5 5 48 74 46 5 6 38 98 100 97 44 17 11 59 100 100 95 99 63 22 9 39 64 98 100 100 100 100 100 100 100 100 100 100 100 100 100 100 100 100 100
5 5 54 69 58 60 47 55 86 71 100 100 66 5 5 7 69 68 84 100 100 100 66 5 5 5 76 100 100 100 100 100 100 100 100 100 100 100 100 100 100 100 100
5 5 11 71 83 29 5 50 45 100 96 49 21 12 97 100 100 95 100 90 90 72 5 5 5 5 5 26 80 100 100 100 100 100 100 100 100 100 100 100 100 100 100
11 11 87 90 61 28 84 97 100 100 100 41 5 13 88 66 100 100 100 100 99 12 5 5 5 5 5 5 28 73 100 100 100 100 100 100 100 100 100 100 100 100 100
17 46 27 5 10 42 97 100 100 100 100 100 58 65 96 100 100 100 100 100 73 12 5 5 5 5 5 5 35 91 92 96 100 100 100 100 100 100 100 100 100 99 100
95 98 98 68 79 68 6 16 100 100 100 99 100 100 93 100 100 100 100 100 92 8 62 8 5 5 5 29 50 29 52 80 100 100 100 100 100 100 100 100 100 100 100
100 100 100 99 100 100 100 100 100 100 100 100 100 95 100 100 100 100 100 99 17 41 30 5 5 5 5 5 14 5 54 66 100 100 95 82 100 94 100 100 98 96 88
97 86 81 72 91 100 100 100 100 100 100 100 100 100 100 100 100 100 100 93 45 45 6 5 5 5 5 5 5 68 100 100 100 100 59 56 76 77 68 62 18 64 71